Weather reports worldwide

Advertisment
Nottingham/Watnall, United Kingdom (3354): temperature & dewpoint: 13.02.2019 13:00:00 - 19.02.2019 13:00:00 (GMT)Nottingham/Watnall, United Kingdom (3354): temperature -20cm & temperature -100cm: 13.02.2019 13:00:00 - 19.02.2019 13:00:00 (GMT)Nottingham/Watnall, United Kingdom (3354): wind speed: 13.02.2019 13:00:00 - 19.02.2019 13:00:00 (GMT)Nottingham/Watnall, United Kingdom (3354): wind direction: 13.02.2019 13:00:00 - 19.02.2019 13:00:00 (GMT)Nottingham/Watnall, United Kingdom (3354): reduced air pressure: 13.02.2019 13:00:00 - 19.02.2019 13:00:00 (GMT)Nottingham/Watnall, United Kingdom (3354): visibility: 13.02.2019 13:00:00 - 19.02.2019 13:00:00 (GMT)Nottingham/Watnall, United Kingdom (3354): sunshine duration: 13.02.2019 13:00:00 - 19.02.2019 13:00:00 (GMT)Nottingham/Watnall, United Kingdom (3354): precipitation: 13.02.2019 13:00:00 - 19.02.2019 13:00:00 (GMT)
Date & Time tt [°C] td [°C] tt -20cm [°C] tt -100cm [°C] ff [km/h] ff [kn] dd ppp [hPa] vv [km] sd [min] rr [mm]
19.02.2019 13:00:00 8,7 2,7 - - 18 10 WSW 1017,0 29 6 0,0
19.02.2019 12:00:00 8,8 3,4 - - 18 10 WSW 1017,1 20 6 0,0
19.02.2019 11:00:00 8,3 3,1 - - 16 9 WSW 1017,2 16 42 0,0
19.02.2019 10:00:00 7,9 3,4 - - 21 11 WSW 1016,9 22 60 0,0
19.02.2019 09:00:00 6,7 3,1 6,4 7,0 16 9 WSW 1016,5 17 36 0,0
19.02.2019 08:00:00 6,1 3,0 - - 18 10 WSW 1015,9 25 0 0,0
19.02.2019 07:00:00 6,5 3,4 - - 18 10 WSW 1015,0 27 0 0,0
19.02.2019 06:00:00 6,5 3,6 - - 21 11 WSW 1014,4 23 0 0,0
19.02.2019 05:00:00 6,7 3,9 - - 18 10 WSW 1014,1 24 0 0,0
19.02.2019 04:00:00 6,2 3,8 - - 13 7 WSW 1014,0 20 0 0,0
19.02.2019 03:00:00 6,5 3,8 - - 9 5 SW 1014,0 20 0 0,0
19.02.2019 02:00:00 6,5 3,7 - - 15 8 WSW 1013,7 15 0 0,0
19.02.2019 01:00:00 6,3 3,6 - - 13 7 WSW 1013,5 19 0 0,0
19.02.2019 00:00:00 6,0 3,2 - - 15 8 WSW 1013,1 15 - 0,0
18.02.2019 23:00:00 6,1 3,1 - - 15 8 WSW 1012,8 15 0 0,0
18.02.2019 22:00:00 6,2 2,8 - - 15 8 SW 1012,8 15 0 0,0
18.02.2019 21:00:00 6,4 2,3 - - 13 7 WSW 1012,7 18 0 0,0
18.02.2019 20:00:00 6,8 1,9 - - 15 8 SW 1012,2 20 0 0,0
18.02.2019 19:00:00 7,5 1,7 - - 21 11 WSW 1011,6 25 0 0,0
18.02.2019 18:00:00 8,1 1,9 - - 11 6 WSW 1011,6 19 0 0,0
18.02.2019 17:00:00 9,2 0,9 - - 16 9 WSW 1011,0 30 24 0,0
18.02.2019 16:00:00 9,4 2,7 - - 16 9 SW 1010,9 23 0 0,0
18.02.2019 15:00:00 9,7 3,0 - - 16 9 WSW 1011,1 19 18 0,0
18.02.2019 14:00:00 10,1 2,9 - - 22 12 WSW 1010,9 18 6 0,0
18.02.2019 13:00:00 9,3 5,3 - - 22 12 SW 1011,3 30 0 0,0
18.02.2019 12:00:00 9,5 5,6 - - 18 10 SW 1011,7 22 6 0,0
18.02.2019 11:00:00 8,9 5,6 - - 21 11 SSW 1011,9 19 12 0,0
18.02.2019 10:00:00 8,0 6,3 - - 18 10 SSW 1012,0 11 6 0,0
18.02.2019 09:00:00 6,8 5,7 6,4 6,9 13 7 SSW 1012,5 8 0 0,0
18.02.2019 08:00:00 6,6 5,7 - - 15 8 SSW 1012,4 9 0 0,0
18.02.2019 07:00:00 6,4 5,6 - - 13 7 SSW 1012,0 9 0 0,0
18.02.2019 06:00:00 6,4 5,4 - - 11 6 SSW 1012,1 7 0 0,0
18.02.2019 05:00:00 7,0 5,6 - - 11 6 SSW 1012,3 10 0 0,0
18.02.2019 04:00:00 6,7 5,4 - - 13 7 SSW 1012,4 10 0 0,0
18.02.2019 03:00:00 6,6 5,3 - - 11 6 SSW 1012,7 10 0 0,2
18.02.2019 02:00:00 6,7 5,2 - - 11 6 SSW 1013,1 11 0 0,0
18.02.2019 01:00:00 7,1 5,4 - - 11 6 SSW 1013,3 11 0 0,0
18.02.2019 00:00:00 7,1 5,3 - - 9 5 SSW 1013,2 10 - 0,0
17.02.2019 23:00:00 7,6 5,8 - - 16 9 S 1013,1 10 0 0,0
17.02.2019 22:00:00 8,0 6,0 - - 13 7 SSW 1012,9 11 0 0,0
17.02.2019 21:00:00 8,3 6,4 - - 11 6 SSW 1012,6 10 0 0,0
17.02.2019 20:00:00 8,8 7,6 - - 9 5 SSW 1012,2 11 0 0,8
17.02.2019 19:00:00 9,6 6,5 - - 11 6 S 1012,1 17 0 0,0
17.02.2019 18:00:00 9,8 6,2 - - 9 5 SSW 1011,8 19 0 0,0
17.02.2019 17:00:00 11,1 6,3 - - 13 7 SSW 1011,3 14 24 0,0
17.02.2019 16:00:00 12,0 7,2 - - 16 9 SSW 1011,2 25 12 0,0
17.02.2019 15:00:00 12,6 6,7 - - 22 12 SSW 1010,8 20 30 0,0
17.02.2019 14:00:00 12,2 7,0 - - 22 12 SW 1011,2 19 18 0,0
17.02.2019 13:00:00 11,0 6,6 - - 15 8 SSW 1011,4 17 6 0,0
17.02.2019 12:00:00 11,5 5,8 - - 15 8 SSW 1011,6 11 12 -
17.02.2019 11:00:00 10,5 5,1 - - 13 7 S 1011,8 13 24 -
17.02.2019 10:00:00 9,4 4,7 - - 13 7 S 1011,9 15 54 0,0
17.02.2019 09:00:00 7,5 5,3 6,2 6,7 15 8 SSE 1012,3 8 54 0,0
17.02.2019 08:00:00 6,6 5,3 - - 15 8 SSE 1013,0 7 0 0,0
17.02.2019 07:00:00 6,6 5,7 - - 11 6 S 1013,3 6 0 0,0
17.02.2019 06:00:00 7,1 6,4 - - 9 5 S 1013,7 6 0 0,0
17.02.2019 05:00:00 7,2 6,2 - - 11 6 S 1014,4 6 0 0,0
17.02.2019 04:00:00 7,9 6,6 - - 13 7 SSW 1015,1 10 0 0,0
17.02.2019 03:00:00 8,2 6,8 - - 16 9 SSW 1015,8 13 0 0,0
17.02.2019 02:00:00 9,2 7,1 - - 13 7 SSW 1016,6 14 0 0,0
17.02.2019 01:00:00 9,7 7,5 - - 15 8 S 1017,3 15 0 0,0
17.02.2019 00:00:00 10,5 7,9 - - 15 8 S 1018,0 16 - 0,0
16.02.2019 23:00:00 11,0 8,3 - - 15 8 S 1018,4 17 0 0,0
16.02.2019 22:00:00 11,4 8,5 - - 16 9 S 1018,6 20 0 0,0
16.02.2019 21:00:00 11,4 8,8 - - 15 8 S 1018,7 25 0 0,0
16.02.2019 20:00:00 11,3 8,9 - - 15 8 S 1018,9 21 0 0,0
16.02.2019 19:00:00 11,2 8,8 - - 11 6 S 1019,0 20 0 0,0
16.02.2019 18:00:00 11,3 8,4 - - 11 6 S 1018,8 20 0 0,0
16.02.2019 17:00:00 11,6 8,2 - - 15 8 SSW 1018,5 16 18 0,0
16.02.2019 16:00:00 12,7 6,7 - - 21 11 SW 1018,9 16 60 0,0
16.02.2019 15:00:00 13,2 5,9 - - 21 11 SSW 1019,3 16 54 0,0
16.02.2019 14:00:00 13,2 5,4 - - 18 10 SW 1019,7 35 60 0,0
16.02.2019 13:00:00 12,6 5,8 - - 18 10 SW 1020,4 24 54 0,0
16.02.2019 12:00:00 11,5 5,9 - - 15 8 SW 1020,8 17 54 0,0
16.02.2019 11:00:00 11,3 6,6 - - 16 9 SW 1020,9 23 60 0,0
16.02.2019 10:00:00 10,2 7,0 - - 13 7 SW 1021,0 11 60 0,0
16.02.2019 09:00:00 8,4 7,3 5,5 6,7 15 8 SW 1020,8 6 36 0,0
16.02.2019 08:00:00 7,4 6,8 - - 13 7 SW 1020,5 5 0 0,0
16.02.2019 07:00:00 7,5 6,5 - - 13 7 SW 1019,9 5 0 0,0
16.02.2019 06:00:00 8,1 6,7 - - 13 7 SSW 1019,5 7 0 0,0
16.02.2019 05:00:00 8,2 6,4 - - 13 7 SW 1019,4 9 0 0,0
16.02.2019 04:00:00 8,2 6,3 - - 13 7 SW 1019,0 11 0 0,0
16.02.2019 03:00:00 7,2 5,0 - - 13 7 SW 1019,2 10 0 0,0
16.02.2019 02:00:00 6,5 4,0 - - 11 6 SSW 1019,6 13 0 0,0
16.02.2019 01:00:00 6,8 3,8 - - 11 6 SSW 1020,2 15 0 0,0
16.02.2019 00:00:00 7,1 3,9 - - 15 8 SSW 1020,6 13 - 0,0
15.02.2019 23:00:00 7,5 4,0 - - 15 8 SSW 1020,6 19 0 0,0
15.02.2019 22:00:00 8,4 4,2 - - 15 8 SSW 1020,9 18 0 0,0
15.02.2019 21:00:00 8,7 4,2 - - 15 8 SSW 1021,5 17 0 0,0
15.02.2019 20:00:00 8,5 4,3 - - 9 5 SSW 1021,8 15 0 0,0
15.02.2019 19:00:00 9,5 4,6 - - 9 5 S 1022,2 18 0 0,0
15.02.2019 18:00:00 10,4 4,5 - - 13 7 S 1022,3 21 0 0,0
15.02.2019 17:00:00 11,6 4,5 - - 11 6 S 1022,1 17 54 0,0
15.02.2019 16:00:00 13,2 4,2 - - 15 8 S 1022,6 18 60 0,0
15.02.2019 15:00:00 13,2 4,2 - - 15 8 SSW 1023,3 20 60 0,0
15.02.2019 14:00:00 13,1 4,1 - - 15 8 SSW 1024,1 13 60 0,0
15.02.2019 13:00:00 11,8 4,3 - - 13 7 SSW 1024,8 10 60 0,0
15.02.2019 12:00:00 9,2 4,3 - - 11 6 SSW 1025,4 11 60 0,0
15.02.2019 11:00:00 7,0 3,7 - - 9 5 SW 1026,3 8 60 0,0
15.02.2019 10:00:00 4,5 2,3 - - 11 6 SW 1026,7 6 60 0,0
15.02.2019 09:00:00 2,8 1,5 5,4 6,7 8 4 SW 1027,0 5 54 0,0
15.02.2019 08:00:00 2,2 1,3 - - 8 4 SSW 1027,0 5 0 0,0
15.02.2019 07:00:00 2,6 0,9 - - 9 5 SW 1027,0 6 0 0,0
15.02.2019 06:00:00 3,1 1,3 - - 11 6 SW 1027,1 8 0 0,0
15.02.2019 05:00:00 1,8 0,4 - - 9 5 SW 1027,4 9 0 0,0
15.02.2019 04:00:00 0,9 -0,5 - - 5 3 SW 1027,7 12 0 0,0
15.02.2019 03:00:00 2,6 1,0 - - 8 4 SW 1028,1 13 0 0,0
15.02.2019 02:00:00 2,0 0,6 - - 5 3 S 1028,5 12 0 0,0
15.02.2019 01:00:00 3,3 1,8 - - 8 4 S 1029,1 13 0 0,0
15.02.2019 00:00:00 2,0 1,0 - - 5 3 S 1029,2 11 - 0,0
14.02.2019 23:00:00 2,6 1,6 - - 4 2 S 1029,4 9 0 0,0
14.02.2019 22:00:00 3,6 1,9 - - 5 3 SSE 1029,6 12 0 0,0
14.02.2019 21:00:00 4,3 2,0 - - 8 4 SSE 1029,5 23 0 0,0
14.02.2019 20:00:00 4,6 0,9 - - 5 3 S 1029,7 17 0 0,0
14.02.2019 19:00:00 7,5 1,1 - - 5 3 SSW 1029,7 10 0 0,0
14.02.2019 18:00:00 9,2 1,2 - - 9 5 S 1029,9 22 0 0,0
14.02.2019 17:00:00 10,4 2,5 - - 8 4 S 1029,9 25 54 0,0
14.02.2019 16:00:00 12,8 2,2 - - 9 5 S 1029,8 25 60 0,0
14.02.2019 15:00:00 12,3 4,0 - - 11 6 S 1030,1 14 60 0,0
14.02.2019 14:00:00 11,2 2,0 - - 13 7 SSW 1030,8 14 60 0,0
14.02.2019 13:00:00 10,9 4,5 - - 9 5 SSW 1031,1 14 60 0,0
14.02.2019 12:00:00 9,7 4,6 - - 5 3 SSW 1032,0 11 60 0,0
14.02.2019 11:00:00 6,5 3,6 - - 8 4 SW 1032,3 7 60 0,0
14.02.2019 10:00:00 4,9 3,6 - - 5 3 SSW 1032,2 7 60 0,2
14.02.2019 09:00:00 2,6 2,6 5,7 6,5 5 3 WSW 1032,2 4,3 24 0,0
14.02.2019 08:00:00 0,1 -0,2 - - 5 3 ENE 1032,5 1,2 0 0,0
14.02.2019 07:00:00 0,9 0,4 - - 4 2 SW 1031,9 1,3 0 0,0
14.02.2019 06:00:00 2,2 1,7 - - 8 4 SSW 1031,6 3,2 0 0,0
14.02.2019 05:00:00 3,1 2,6 - - 9 5 SW 1031,7 4,7 0 0,0
14.02.2019 04:00:00 3,3 2,7 - - 13 7 SW 1031,3 4,5 0 0,0
14.02.2019 03:00:00 4,0 3,1 - - 15 8 WSW 1031,1 7 0 0,0
14.02.2019 02:00:00 4,2 3,3 - - 13 7 SW 1031,0 8 0 0,0
14.02.2019 01:00:00 4,6 3,4 - - 15 8 SW 1030,9 10 0 0,0
14.02.2019 00:00:00 4,9 3,5 - - 13 7 SSW 1030,9 10 - 0,0
13.02.2019 23:00:00 5,6 3,9 - - 13 7 SW 1030,7 12 0 0,0
13.02.2019 22:00:00 5,6 4,1 - - 9 5 SW 1030,3 10 0 0,0
13.02.2019 21:00:00 5,9 4,2 - - 9 5 SSW 1030,1 10 0 0,0
13.02.2019 20:00:00 6,4 4,2 - - 8 4 S 1030,2 12 0 0,0
13.02.2019 19:00:00 7,4 4,2 - - 11 6 SW 1030,0 18 0 0,0
13.02.2019 18:00:00 8,1 4,3 - - 13 7 SW 1029,9 16 0 0,0
13.02.2019 17:00:00 9,2 4,3 - - 16 9 SSW 1029,7 19 12 0,0
13.02.2019 16:00:00 10,1 5,1 - - 16 9 SSW 1029,4 19 6 0,0
13.02.2019 15:00:00 10,3 4,9 - - 18 10 SSW 1029,7 19 0 0,0
13.02.2019 14:00:00 10,6 4,9 - - 15 8 SW 1030,3 26 30 0,0
13.02.2019 13:00:00 11,2 5,1 - - 18 10 SSW 1030,3 50 60 0,0

tt = temperature
td = dewpoint
tt -20cm = temperature -20cm
tt -100cm = temperature -100cm
ff = wind speed
dd = wind direction
ppp = reduced air pressure
vv = visibility
sd = sunshine duration
rr = precipitation

Next stations